Location: Riverton
(43.0250°N, 108.3790°W)
Time: 20:57:42
(UTC-07:00)

Amateur Radio Satellites - All Passes

Search period start: 30 January 2015 20:27
Search period end: 31 January 2015 20:27
Location: Riverton, 43.0250°N, 108.3790°W

Satellite Date Start Highest point End Downlink Frequencies (MHz)
Time Altitude Azimuth
GOMX 1 30 Jan 20:34:07 20:39:13 71° 259° (WSW) 20:44:40 467.674
DOVE 4 30 Jan 20:38:29 20:43:36 85° 260° (W) 20:48:56 437.250
STRAND 1 30 Jan 20:40:05 20:43:49 20° 297° (WNW) 20:47:25 437.568
SEEDS 30 Jan 20:41:42 20:45:56 59° 260° (W) 20:50:08 437.485
VELOX 1 30 Jan 20:45:41 20:47:53 14° 63° (ENE) 20:50:18 145.980
ISS 30 Jan 20:47:15 20:49:51 22° 136° (SE) 20:52:30 145.825
BRITE-PL 30 Jan 20:47:47 20:52:35 39° 265° (W) 20:57:41 437.365/2234.400
UKube-1 30 Jan 20:57:02 21:01:07 43° 71° (ENE) 21:05:16 .
HUMSAT D 30 Jan 21:05:30 21:09:02 25° 68° (ENE) 21:12:39 437.325/437.525
COMPASS 1 30 Jan 21:06:10 21:10:07 37° 263° (W) 21:14:03 437.405
YUBILEINY 30 Jan 21:09:31 21:17:18 34° 292° (WNW) 21:25:00 435.215
AIST 1 30 Jan 21:13:23 21:15:57 16° 68° (ENE) 21:18:41
CUBEBUG 2 30 Jan 21:14:19 21:19:05 79° 76° (ENE) 21:23:55 437.445
ZACube-1 30 Jan 21:14:42 21:19:13 57° 74° (ENE) 21:23:46 437.345
DELFI C3 30 Jan 21:16:23 21:20:28 84° 255° (WSW) 21:24:34 145.870
DX 1 30 Jan 21:19:36 21:23:56 79° 75° (ENE) 21:28:20 434.975-435.025
FUNcube-1 30 Jan 21:26:00 21:30:35 73° 76° (ENE) 21:35:12 145.935
CANX-2 30 Jan 21:27:11 21:29:56 16° 270° (W) 21:32:32 2200.000
AAUSAT CUBESAT 2 30 Jan 21:31:51 21:35:16 23° 267° (W) 21:38:36 437.432
UWE-3 30 Jan 21:51:00 21:55:35 52° 261° (W) 22:00:12 435.000/436.395/437.385
CINEMA 3 30 Jan 21:51:10 21:55:31 29° 267° (W) 21:59:54 145.822/145.860
AISAT 30 Jan 21:52:13 21:56:39 67° 74° (ENE) 22:01:07 437.250
Oscar 11 30 Jan 21:57:25 22:01:05 25° 266° (W) 22:04:41 145.826/435.025
ANTELSAT 30 Jan 21:57:39 22:00:37 18° 90° (E) 22:03:41 437.575/2403.000
50 SAT 30 Jan 22:00:38 22:04:45 73° 76° (ENE) 22:08:54 437.505
ESTCUBE 1 30 Jan 22:00:59 22:05:04 36° 70° (ENE) 22:09:11 437.505/2401.250
HO-68 30 Jan 22:03:09 22:07:31 16° 273° (W) 22:11:29 435.675
TIGRISAT 30 Jan 22:04:08 22:07:24 20° 91° (E) 22:10:44 435.000
QB50P2 30 Jan 22:10:03 22:12:20 14° 89° (E) 22:14:48 145.880/145.840
QB50P1 30 Jan 22:18:19 22:21:10 18° 91° (E) 22:24:08 145.935-145.965
VELOX 1 30 Jan 22:19:36 22:24:01 65° 259° (WSW) 22:28:29 145.980
DOVE 4 30 Jan 22:21:09 22:22:19 10° 277° (W) 22:23:07 437.250
BUGSAT 1 30 Jan 22:21:20 22:23:38 15° 90° (E) 22:26:07 437.445
CUBEBUG 1 30 Jan 22:22:46 22:27:00 55° 73° (ENE) 22:31:18 437.445
ISS 30 Jan 22:22:57 22:26:09 49° 332° (NNW) 22:29:22 145.825
POLYITAN 1 30 Jan 22:33:45 22:37:21 26° 94° (E) 22:40:59 437.675
TISAT 1 30 Jan 22:33:48 22:36:40 18° 65° (ENE) 22:39:40 437.305
UKube-1 30 Jan 22:34:31 22:37:32 18° 268° (W) 22:40:27 .
HUMSAT D 30 Jan 22:40:50 22:44:45 31° 265° (W) 22:48:38 437.325/437.525
AIST 1 30 Jan 22:49:46 22:53:59 48° 266° (W) 22:58:11
POPSAT HIP 1 30 Jan 22:52:29 22:56:34 40° 98° (E) 23:00:38 437.405
ZACube-1 30 Jan 22:53:11 22:56:01 15° 271° (W) 22:58:40 437.345
DUCHIFAT 1 30 Jan 22:54:04 22:58:09 41° 98° (E) 23:02:14 145.980
CUBEBUG 2 30 Jan 22:54:41 22:56:28 12° 274° (W) 22:57:59 437.445
UNISAT 6 30 Jan 22:57:08 23:01:37 78° 102° (ESE) 23:05:57 437.425
FUNcube-1 30 Jan 23:05:42 23:07:32 12° 273° (W) 23:09:06 145.935
GONETS M04 30 Jan 23:23:58 23:27:25 14° 76° (ENE) 23:31:31
NANOSAT C BR1 30 Jan 23:28:57 23:33:17 80° 284° (WNW) 23:37:33 145.865
AISAT 30 Jan 23:31:54 23:33:50 12° 272° (W) 23:35:32 437.250
ANTELSAT 30 Jan 23:33:29 23:37:44 43° 289° (WNW) 23:41:50 437.575/2403.000
SPROUT 30 Jan 23:36:57 23:41:16 86° 76° (ENE) 23:45:39 437.525
ESTCUBE 1 30 Jan 23:38:29 23:42:04 23° 267° (W) 23:45:36 437.505/2401.250
TIGRISAT 30 Jan 23:40:14 23:44:22 38° 290° (WNW) 23:48:23 435.000
QB50P2 30 Jan 23:44:27 23:48:40 52° 287° (WNW) 23:52:50 145.880/145.840
SWISSCUBE 30 Jan 23:47:11 23:50:39 21° 65° (ENE) 23:54:16 437.505
QB50P1 30 Jan 23:53:13 23:57:20 43° 288° (WNW) 00:01:23 145.935-145.965
BUGSAT 1 30 Jan 23:55:19 23:59:31 52° 287° (WNW) 00:03:41 437.445
ISS 31 Jan 00:00:42 00:03:11 19° 352° (N) 00:05:41 145.825
CUBEBUG 1 31 Jan 00:01:23 00:03:49 14° 271° (W) 00:06:04 437.445
BEESAT 31 Jan 00:02:06 00:06:01 27° 67° (ENE) 00:10:01 436.000
ITUPSAT 1 31 Jan 00:07:00 00:11:03 29° 67° (ENE) 00:15:11 437.325
TISAT 1 31 Jan 00:08:09 00:12:13 43° 262° (W) 00:16:18 437.305
POLYITAN 1 31 Jan 00:09:31 00:13:19 29° 291° (WNW) 00:17:01 437.675
POPSAT HIP 1 31 Jan 00:29:03 00:32:14 20° 294° (WNW) 00:35:17 437.405
DUCHIFAT 1 31 Jan 00:30:39 00:33:46 19° 294° (WNW) 00:36:45 145.980
UNISAT 6 31 Jan 00:36:10 00:37:49 12° 299° (WNW) 00:39:15 437.425
BEESAT 2 31 Jan 01:08:34 01:11:25 19° 112° (ESE) 01:14:23 435.950
GONETS M04 31 Jan 01:14:11 01:22:53 72° 94° (E) 01:31:34
Oscar 19 31 Jan 01:16:47 01:21:33 38° 97° (E) 01:26:19 437.125/150
STARS 31 Jan 01:19:34 01:22:54 22° 66° (ENE) 01:26:22 437.465
BEESAT 3 31 Jan 01:20:01 01:23:29 27° 115° (ESE) 01:27:04 437.485
M-CUBED/EXP-1 PRIME 31 Jan 01:20:39 01:22:31 14° 61° (ENE) 01:24:28 437.505
SWISSCUBE 31 Jan 01:23:42 01:28:16 45° 261° (W) 01:32:51 437.505
O/OREOS (USA 219) 31 Jan 01:26:57 01:31:29 55° 63° (ENE) 01:36:01 437.305
KKS-1 31 Jan 01:29:15 01:33:25 39° 70° (ENE) 01:37:38 437.445
ITAMSAT 1 31 Jan 01:37:38 01:41:31 21° 92° (E) 01:45:32 435.822/435.867
ISS 31 Jan 01:37:52 01:40:30 21° 12° (NNE) 01:43:08 145.825
BEESAT 31 Jan 01:39:25 01:43:47 35° 264° (W) 01:48:07 436.000
ITUPSAT 1 31 Jan 01:44:39 01:48:55 32° 264° (W) 01:53:09 437.325
AUBIESAT-1 31 Jan 01:50:50 01:54:01 25° 65° (ENE) 01:57:04 437.475
Gurwin Techsat 1B 31 Jan 02:45:02 02:50:19 62° 101° (E) 02:55:35 435.225
BEESAT 2 31 Jan 02:45:21 02:49:20 45° 309° (NW) 02:53:23 435.950
AIST 2 31 Jan 02:50:59 02:55:14 89° 135° (SE) 02:59:35 435.215
M-CUBED/EXP-1 PRIME 31 Jan 02:53:23 02:57:17 50° 254° (WSW) 03:00:52 437.505
STARS 31 Jan 02:55:00 02:59:11 39° 262° (W) 03:03:23 437.465
Oscar 19 31 Jan 02:56:25 03:00:48 28° 294° (WNW) 03:05:04 437.125/150
BEESAT 3 31 Jan 02:57:50 03:01:34 32° 313° (NW) 03:05:19 437.485
DANDE 31 Jan 03:00:53 03:07:33 28° 85° (E) 03:14:37 436.750
KKS-1 31 Jan 03:06:49 03:10:15 21° 268° (W) 03:13:36 437.445
O/OREOS (USA 219) 31 Jan 03:07:42 03:10:30 16° 259° (W) 03:13:08 437.305
HORYU 2 31 Jan 03:10:13 03:14:13 33° 96° (E) 03:18:15 437.375
GONETS M04 31 Jan 03:13:30 03:20:41 26° 297° (WNW) 03:27:36
ISS 31 Jan 03:14:07 03:17:24 70° 30° (NNE) 03:20:42 145.825
ITAMSAT 1 31 Jan 03:16:17 03:21:21 50° 289° (WNW) 03:26:23 435.822/435.867
RS-15 31 Jan 03:16:37 03:24:45 26° 104° (ESE) 03:33:21 29.354- 29.394
CUSAT 1 31 Jan 03:18:27 03:26:01 42° 90° (E) 03:33:42 437.405
MOZHAYETS 4 31 Jan 03:22:44 03:26:29 26° 68° (ENE) 03:30:19
AUBIESAT-1 31 Jan 03:25:41 03:28:56 24° 258° (WSW) 03:31:57 437.475
JAS-2 31 Jan 03:30:26 03:32:51 13° 88° (E) 03:35:48 435.910
PCSat 31 Jan 03:47:21 03:52:33 51° 115° (ESE) 03:57:50 145.827
AO-7 31 Jan 04:12:03 04:20:12 55° 102° (ESE) 04:28:19 29.400- 29.500
Gurwin Techsat 1B 31 Jan 04:26:06 04:29:52 19° 298° (WNW) 04:33:29 435.225
AIST 2 31 Jan 04:32:00 04:34:32 15° 323° (NW) 04:36:58 435.215
PRISM 31 Jan 04:33:50 04:36:04 15° 64° (ENE) 04:38:28 437.425
STRAND 1 31 Jan 04:41:18 04:43:18 13° 59° (ENE) 04:45:33 437.568
DANDE 31 Jan 04:42:02 04:50:26 73° 283° (WNW) 04:59:03 436.750
HORYU 2 31 Jan 04:47:08 04:50:47 25° 293° (WNW) 04:54:21 437.375
ISS 31 Jan 04:51:30 04:53:34 15° 227° (SW) 04:55:33 145.825
MOZHAYETS 4 31 Jan 04:59:28 05:03:38 33° 264° (W) 05:07:46
CUSAT 1 31 Jan 05:00:53 05:09:00 50° 288° (WNW) 05:16:57 437.405
JAS-2 31 Jan 05:12:57 05:18:41 89° 100° (E) 05:25:12 435.910
CUBESAT XI-V 31 Jan 05:20:35 05:24:40 33° 70° (ENE) 05:28:50 437.345
YUBILEINY 31 Jan 05:20:49 05:28:03 29° 65° (ENE) 05:35:32 435.215
RS-15 31 Jan 05:25:01 05:35:58 83° 304° (NW) 05:47:05 29.354- 29.394
PCSat 31 Jan 05:31:38 05:36:17 28° 314° (NW) 05:40:53 145.827
Cubesat XI-IV 31 Jan 05:35:56 05:39:55 22° 91° (E) 05:44:05 437.490
CUTE-I 31 Jan 05:54:49 05:59:32 31° 95° (E) 06:04:19 437.470
AO-7 31 Jan 06:05:17 06:12:46 37° 301° (WNW) 06:20:04 29.400- 29.500
PRISM 31 Jan 06:07:13 06:11:15 51° 260° (W) 06:15:16 437.425
STRAND 1 31 Jan 06:16:43 06:21:49 88° 78° (ENE) 06:26:59 437.568
DANDE 31 Jan 06:29:40 06:35:30 19° 304° (WNW) 06:40:55 436.750
CUSAT 1 31 Jan 06:51:11 06:54:10 12° 309° (NW) 06:56:33 437.405
CUBESAT XI-V 31 Jan 06:58:19 07:02:12 26° 267° (W) 07:06:02 437.345
JAS-2 31 Jan 07:00:02 07:03:20 15° 299° (WNW) 07:06:30 435.910
Cubesat XI-IV 31 Jan 07:15:10 07:20:24 52° 289° (WNW) 07:25:35 437.490
YUBILEINY 31 Jan 07:16:59 07:25:42 67° 266° (W) 07:34:22 435.215
PHONESAT 2.4 31 Jan 07:20:54 07:21:15 10° 147° (SSE) 07:21:44 2401.200-2431.200
CUTE-I 31 Jan 07:34:45 07:39:40 36° 292° (WNW) 07:44:30 437.470
HO-68 31 Jan 07:40:09 07:44:04 16° 86° (E) 07:48:23 435.675
RS-15 31 Jan 07:40:44 07:50:17 32° 333° (NNW) 07:59:54 29.354- 29.394
VERMONT LUNAR 31 Jan 07:44:26 07:47:09 22° 156° (SSE) 07:49:55 437.305
CUTE 1.7 + AOD 2 31 Jan 07:59:46 08:01:30 12° 88° (E) 08:03:26 437.475
STRAND 1 31 Jan 08:00:22 08:01:52 11° 274° (W) 08:03:02 437.568
SEEDS 31 Jan 08:26:10 08:29:19 21° 92° (E) 08:32:33 437.485
GOMX 1 31 Jan 08:35:46 08:40:44 37° 95° (E) 08:45:29 467.674
DOVE 4 31 Jan 08:37:52 08:42:12 27° 92° (E) 08:46:26 437.250
COMPASS 1 31 Jan 08:49:05 08:52:48 31° 96° (E) 08:56:30 437.405
SO-50 31 Jan 08:49:55 08:52:24 15° 110° (ESE) 08:55:07 436.795
BRITE-PL 31 Jan 08:51:23 08:57:05 72° 101° (E) 09:02:29 437.365/2234.400
PHONESAT 2.4 31 Jan 08:55:56 08:59:12 33° 162° (SSE) 09:02:31 2401.200-2431.200
DELFI C3 31 Jan 08:57:36 08:59:18 13° 89° (E) 09:01:13 145.870
ANTELSAT 31 Jan 08:57:37 09:01:03 21° 66° (ENE) 09:04:35 437.575/2403.000
TIGRISAT 31 Jan 09:03:46 09:07:24 23° 67° (ENE) 09:11:08 435.000
QB50P2 31 Jan 09:04:50 09:06:56 14° 63° (ENE) 09:09:12 145.880/145.840
CUBEBUG 2 31 Jan 09:06:30 09:09:10 16° 88° (E) 09:11:57 437.445
DX 1 31 Jan 09:09:01 09:10:54 13° 89° (E) 09:13:01 434.975-435.025
CANX-2 31 Jan 09:09:50 09:14:05 84° 102° (ESE) 09:18:18 2200.000
QB50P1 31 Jan 09:12:47 09:15:23 16° 65° (ENE) 09:18:08 145.935-145.965
AAUSAT CUBESAT 2 31 Jan 09:13:25 09:17:28 50° 99° (E) 09:21:31 437.432
BUGSAT 1 31 Jan 09:13:44 09:15:20 12° 63° (ENE) 09:17:08 437.445
FUNcube-1 31 Jan 09:15:55 09:17:51 13° 87° (E) 09:19:58 145.935
YUBILEINY 31 Jan 09:17:40 09:21:00 12° 285° (WNW) 09:23:38 435.215
VERMONT LUNAR 31 Jan 09:21:30 09:24:53 51° 172° (S) 09:28:18 437.305
HO-68 31 Jan 09:25:42 09:32:55 88° 106° (ESE) 09:40:06 435.675
BEESAT 2 31 Jan 09:26:47 09:29:52 20° 41° (NE) 09:33:00 435.950
POLYITAN 1 31 Jan 09:28:13 09:31:37 24° 67° (ENE) 09:35:07 437.675
CUTE 1.7 + AOD 2 31 Jan 09:33:44 09:37:55 58° 286° (WNW) 09:42:02 437.475
AIST 2 31 Jan 09:35:03 09:37:05 13° 35° (NE) 09:39:14 435.215
BEESAT 3 31 Jan 09:38:18 09:41:50 26° 45° (NE) 09:45:23 437.485
UWE-3 31 Jan 09:40:49 09:44:45 30° 95° (E) 09:48:36 435.000/436.395/437.385
Oscar 11 31 Jan 09:43:04 09:47:18 52° 99° (E) 09:51:31 145.826/435.025
AISAT 31 Jan 09:44:28 09:46:12 12° 88° (E) 09:48:10 437.250
CINEMA 3 31 Jan 09:44:59 09:49:49 69° 101° (E) 09:54:25 145.822/145.860
POPSAT HIP 1 31 Jan 09:46:26 09:50:19 35° 70° (ENE) 09:54:16 437.405
DUCHIFAT 1 31 Jan 09:47:42 09:51:35 35° 70° (ENE) 09:55:32 145.980
UNISAT 6 31 Jan 09:56:36 10:01:19 78° 75° (ENE) 10:06:00 437.425
RS-15 31 Jan 09:58:47 10:07:17 24° 8° (N) 10:16:06 29.354- 29.394
SEEDS 31 Jan 10:01:28 10:05:17 34° 289° (WNW) 10:09:02 437.485
VELOX 1 31 Jan 10:10:05 10:13:36 22° 93° (E) 10:17:10 145.980
GOMX 1 31 Jan 10:14:01 10:18:45 31° 293° (WNW) 10:23:13 467.674
DOVE 4 31 Jan 10:15:17 10:20:05 38° 291° (WNW) 10:24:37 437.250
UKube-1 31 Jan 10:19:38 10:24:01 71° 102° (ESE) 10:28:22 .
NANOSAT C BR1 31 Jan 10:22:23 10:26:40 87° 77° (ENE) 10:31:00 145.865
HUMSAT D 31 Jan 10:24:12 10:28:10 39° 97° (E) 10:32:05 437.325/437.525
COMPASS 1 31 Jan 10:25:03 10:28:25 23° 292° (WNW) 10:31:40 437.405
SO-50 31 Jan 10:27:52 10:32:26 67° 307° (NW) 10:37:10 436.795
DELFI C3 31 Jan 10:31:00 10:34:58 53° 286° (WNW) 10:38:53 145.870
BRITE-PL 31 Jan 10:31:07 10:34:59 19° 299° (WNW) 10:38:34 437.365/2234.400
ANTELSAT 31 Jan 10:33:03 10:37:36 45° 262° (W) 10:42:06 437.575/2403.000
PHONESAT 2.4 31 Jan 10:33:57 10:37:30 58° 179° (S) 10:41:05 2401.200-2431.200
QB50P2 31 Jan 10:38:09 10:42:24 62° 259° (W) 10:46:42 145.880/145.840
ZACube-1 31 Jan 10:39:09 10:43:35 78° 284° (WNW) 10:47:52 437.345
TIGRISAT 31 Jan 10:39:32 10:43:58 40° 263° (W) 10:48:23 435.000
CUBEBUG 2 31 Jan 10:41:51 10:46:19 51° 287° (WNW) 10:50:35 437.445
DX 1 31 Jan 10:43:18 10:47:40 62° 286° (WNW) 10:52:00 434.975-435.025
BUGSAT 1 31 Jan 10:46:15 10:50:20 66° 258° (WSW) 10:54:31 437.445
QB50P1 31 Jan 10:46:46 10:50:56 50° 261° (W) 10:55:09 145.935-145.965
AAUSAT CUBESAT 2 31 Jan 10:50:19 10:52:48 15° 295° (WNW) 10:55:06 437.432
FUNcube-1 31 Jan 10:50:22 10:54:44 59° 286° (WNW) 10:58:57 145.935
PCSat 31 Jan 10:52:52 10:54:41 12° 31° (NNE) 10:56:42 145.827
VERMONT LUNAR 31 Jan 10:59:25 11:02:48 50° 189° (S) 11:06:13 437.305
POLYITAN 1 31 Jan 11:03:30 11:07:26 33° 264° (W) 11:11:21 437.675
BEESAT 2 31 Jan 11:04:20 11:08:26 53° 241° (WSW) 11:12:27 435.950
AIST 2 31 Jan 11:12:11 11:16:30 78° 55° (NE) 11:20:43 435.215
50 SAT 31 Jan 11:14:18 11:18:22 74° 284° (WNW) 11:22:20 437.505
HO-68 31 Jan 11:14:49 11:19:51 20° 305° (NW) 11:24:39 435.675
BEESAT 3 31 Jan 11:16:15 11:20:04 35° 244° (WSW) 11:23:47 437.485
UWE-3 31 Jan 11:17:26 11:21:15 27° 292° (WNW) 11:24:53 435.000/436.395/437.385
AISAT 31 Jan 11:18:53 11:23:23 68° 286° (WNW) 11:27:52 437.250
AIST 1 31 Jan 11:19:59 11:24:14 86° 275° (W) 11:28:32
Oscar 11 31 Jan 11:20:28 11:23:08 16° 295° (WNW) 11:25:37 145.826/435.025
POPSAT HIP 1 31 Jan 11:22:59 11:26:21 21° 267° (W) 11:29:38 437.405
GONETS M04 31 Jan 11:23:34 11:31:24 37° 69° (ENE) 11:39:23
CINEMA 3 31 Jan 11:23:43 11:26:28 15° 298° (WNW) 11:28:57 145.822/145.860
DUCHIFAT 1 31 Jan 11:24:17 11:27:36 21° 268° (W) 11:30:49 145.980
SPROUT 31 Jan 11:24:26 11:26:43 14° 89° (E) 11:29:12 437.525
ESTCUBE 1 31 Jan 11:29:08 11:33:40 70° 102° (ESE) 11:38:12 437.505/2401.250
UNISAT 6 31 Jan 11:37:04 11:38:45 11° 273° (W) 11:40:09 437.425
VELOX 1 31 Jan 11:46:10 11:50:19 36° 290° (WNW) 11:54:25 145.980
CUBEBUG 1 31 Jan 11:46:58 11:51:27 82° 284° (WNW) 11:55:54 437.445
TISAT 1 31 Jan 11:52:22 11:56:01 27° 95° (E) 11:59:43 437.305
UKube-1 31 Jan 11:57:42 11:59:41 13° 298° (WNW) 12:01:29 .
HUMSAT D 31 Jan 12:00:38 12:03:44 19° 294° (WNW) 12:06:41 437.325/437.525
SO-50 31 Jan 12:11:28 12:13:58 14° 328° (NNW) 12:16:23 436.795
PHONESAT 2.4 31 Jan 12:12:26 12:15:52 40° 195° (SSW) 12:19:18 2401.200-2431.200
RS-15 31 Jan 12:12:49 12:23:29 46° 40° (NE) 12:34:41 29.354- 29.394
Gurwin Techsat 1B 31 Jan 12:30:06 12:33:01 16° 60° (ENE) 12:36:09 435.225
PCSat 31 Jan 12:34:13 12:39:31 51° 54° (NE) 12:44:48 145.827
Oscar 19 31 Jan 12:34:21 12:39:27 61° 73° (ENE) 12:44:36 437.125/150
VERMONT LUNAR 31 Jan 12:37:48 12:40:32 21° 204° (SSW) 12:43:15 437.305
AIST 2 31 Jan 12:53:15 12:54:33 11° 251° (WSW) 12:55:37 435.215
ITAMSAT 1 31 Jan 12:56:20 13:01:00 36° 68° (ENE) 13:05:44 435.822/435.867
SPROUT 31 Jan 12:58:58 13:03:14 54° 287° (WNW) 13:07:28 437.525
ESTCUBE 1 31 Jan 13:07:45 13:10:04 14° 298° (WNW) 13:12:12 437.505/2401.250
GONETS M04 31 Jan 13:20:16 13:28:34 51° 270° (W) 13:36:47
AO-7 31 Jan 13:22:55 13:28:20 20° 50° (NE) 13:34:03 29.400- 29.500
SWISSCUBE 31 Jan 13:23:03 13:27:35 42° 98° (E) 13:32:08 437.505
TISAT 1 31 Jan 13:28:08 13:31:50 28° 291° (WNW) 13:35:27 437.305
BEESAT 31 Jan 13:38:16 13:42:58 55° 101° (E) 13:47:40 436.000
ITUPSAT 1 31 Jan 13:43:41 13:48:27 61° 101° (ESE) 13:53:12 437.325
DANDE 31 Jan 13:45:13 13:49:20 18° 55° (NE) 13:53:01 436.750
PHONESAT 2.4 31 Jan 13:51:58 13:53:54 14° 210° (SSW) 13:55:46 2401.200-2431.200
CUSAT 1 31 Jan 14:00:49 14:05:40 25° 61° (ENE) 14:09:39 437.405
Gurwin Techsat 1B 31 Jan 14:07:06 14:12:25 79° 256° (WSW) 14:17:46 435.225
HORYU 2 31 Jan 14:09:33 14:13:38 35° 70° (ENE) 14:17:45 437.375
Oscar 19 31 Jan 14:15:50 14:19:19 17° 271° (W) 14:22:36 437.125/150
PCSat 31 Jan 14:18:17 14:22:40 25° 251° (WSW) 14:26:55 145.827
RS-15 31 Jan 14:25:21 14:36:33 64° 244° (WSW) 14:48:11 29.354- 29.394
ITAMSAT 1 31 Jan 14:36:02 14:40:34 30° 265° (W) 14:45:05 435.822/435.867
STARS 31 Jan 14:44:00 14:48:05 35° 97° (E) 14:52:09 437.465
KKS-1 31 Jan 14:55:46 15:00:16 72° 102° (ESE) 15:04:44 437.445
SWISSCUBE 31 Jan 15:01:28 15:05:15 23° 294° (WNW) 15:08:55 437.505
AUBIESAT-1 31 Jan 15:06:30 15:08:18 14° 98° (E) 15:10:16 437.475
AO-7 31 Jan 15:11:39 15:19:59 78° 70° (ENE) 15:28:23 29.400- 29.500
BEESAT 31 Jan 15:17:10 15:20:27 18° 296° (WNW) 15:23:35 436.000
ITUPSAT 1 31 Jan 15:22:51 15:25:56 17° 297° (WNW) 15:28:50 437.325
JAS-2 31 Jan 15:27:20 15:32:15 38° 69° (ENE) 15:37:04 435.910
DANDE 31 Jan 15:27:31 15:34:02 71° 263° (W) 15:38:45 436.750
O/OREOS (USA 219) 31 Jan 15:40:02 15:44:23 53° 109° (ESE) 15:48:50 437.305
CUSAT 1 31 Jan 15:43:33 15:49:06 40° 270° (W) 15:53:15 437.405
HORYU 2 31 Jan 15:46:46 15:50:25 23° 266° (W) 15:53:59 437.375
M-CUBED/EXP-1 PRIME 31 Jan 16:09:06 16:12:26 76° 290° (WNW) 16:15:53 437.505
STARS 31 Jan 16:20:50 16:24:25 24° 293° (WNW) 16:27:54 437.465
KKS-1 31 Jan 16:34:15 16:36:25 13° 298° (WNW) 16:38:22 437.445
AUBIESAT-1 31 Jan 16:40:23 16:43:25 33° 293° (WNW) 16:46:32 437.475
RS-15 31 Jan 16:41:51 16:47:08 13° 262° (W) 16:51:22 29.354- 29.394
MOZHAYETS 4 31 Jan 16:53:11 16:57:41 53° 100° (E) 17:02:09
Cubesat XI-IV 31 Jan 16:58:40 17:03:33 39° 68° (ENE) 17:08:30 437.490
AO-7 31 Jan 17:07:14 17:13:45 23° 270° (W) 17:19:57 29.400- 29.500
JAS-2 31 Jan 17:13:05 17:17:36 26° 266° (W) 17:21:51 435.910
CUTE-I 31 Jan 17:17:31 17:22:41 56° 72° (ENE) 17:27:56 437.470
SO-50 31 Jan 17:18:31 17:22:27 24° 41° (NE) 17:26:28 436.795
O/OREOS (USA 219) 31 Jan 17:21:02 17:24:13 18° 308° (NW) 17:27:19 437.305
PRISM 31 Jan 17:49:48 17:52:50 20° 93° (E) 17:55:58 437.425
HO-68 31 Jan 18:11:23 18:15:08 16° 52° (NE) 18:19:12 435.675
YUBILEINY 31 Jan 18:23:47 18:30:53 31° 84° (E) 18:38:15 435.215
STRAND 1 31 Jan 18:26:47 18:31:10 28° 94° (E) 18:35:36 437.568
BRITE-PL 31 Jan 18:27:43 18:30:01 13° 58° (ENE) 18:32:38 437.365/2234.400
MOZHAYETS 4 31 Jan 18:31:32 18:34:33 17° 296° (WNW) 18:37:25
Cubesat XI-IV 31 Jan 18:39:11 18:43:46 28° 266° (W) 18:48:19 437.490
CUBESAT XI-V 31 Jan 18:53:05 18:57:48 74° 102° (ESE) 19:02:31 437.345
CUTE 1.7 + AOD 2 31 Jan 18:54:44 18:56:09 12° 63° (ENE) 18:57:47 437.475
SO-50 31 Jan 18:58:33 19:03:25 60° 240° (WSW) 19:08:15 436.795
CUTE-I 31 Jan 18:59:20 19:03:12 20° 270° (W) 19:06:57 437.470
SEEDS 31 Jan 19:19:57 19:22:49 18° 66° (ENE) 19:25:47 437.485
PRISM 31 Jan 19:24:41 19:28:30 35° 290° (WNW) 19:32:18 437.425
COMPASS 1 31 Jan 19:41:50 19:45:17 25° 69° (ENE) 19:48:48 437.405
DOVE 4 31 Jan 19:43:54 19:48:23 32° 68° (ENE) 19:53:04 437.250
GOMX 1 31 Jan 19:44:11 19:49:02 43° 70° (ENE) 19:54:10 467.674
DELFI C3 31 Jan 19:48:40 19:49:10 10° 63° (ENE) 19:49:54 145.870
HO-68 31 Jan 19:54:42 20:01:47 73° 71° (ENE) 20:08:57 435.675
ISS 31 Jan 19:56:24 19:57:44 12° 132° (SE) 19:59:11 145.825
BRITE-PL 31 Jan 20:02:30 20:07:40 85° 78° (ENE) 20:13:15 437.365/2234.400
ZACube-1 31 Jan 20:03:07 20:04:25 11° 61° (ENE) 20:05:57 437.345
CANX-2 31 Jan 20:03:34 20:07:49 67° 75° (ENE) 20:12:06 2200.000
AAUSAT CUBESAT 2 31 Jan 20:05:28 20:09:22 39° 72° (ENE) 20:13:19 437.432
STRAND 1 31 Jan 20:05:43 20:10:28 38° 291° (WNW) 20:15:10 437.568
CUBEBUG 2 31 Jan 20:05:45 20:08:50 18° 64° (ENE) 20:12:04 437.445
DX 1 31 Jan 20:06:02 20:08:12 14° 63° (ENE) 20:10:34 434.975-435.025
FUNcube-1 31 Jan 20:13:01 20:15:19 14° 63° (ENE) 20:17:49 145.935
